| time (UTC) | temp F | wind direction | speed knots | gust knots | rain 1hr in | rain 24hr in | rain mn in | humidity % | barometer mb |
| 20260509141635 | 62 | 334 | 2.6 | 7.0 | 0.00 | 0.00 | 0.00 | 28 | 1013.2 |
| 20260509141035 | 61 | 330 | 2.6 | 7.0 | 0.00 | 0.00 | 0.00 | 27 | 1013.1 |
| 20260509140535 | 61 | 278 | 1.7 | 7.0 | 0.00 | 0.00 | 0.00 | 28 | 1013.1 |
| 20260509140037 | 61 | 355 | 2.6 | 7.0 | 0.00 | 0.00 | 0.00 | 27 | 1013.1 |
| 20260509135535 | 61 | 267 | 2.6 | 7.0 | 0.00 | 0.00 | 0.00 | 29 | 1013.0 |
| 20260509135034 | 60 | 252 | 2.6 | 7.0 | 0.00 | 0.00 | 0.00 | 30 | 1012.9 |
| 20260509134548 | 60 | 275 | 3.5 | 7.0 | 0.00 | 0.00 | 0.00 | 31 | 1012.9 |
| 20260509134035 | 60 | 276 | 3.5 | 7.0 | 0.00 | 0.00 | 0.00 | 33 | 1012.9 |
| 20260509133534 | 60 | 281 | 3.5 | 7.0 | 0.00 | 0.00 | 0.00 | 30 | 1012.8 |
| 20260509133034 | 59 | 269 | 3.5 | 8.7 | 0.00 | 0.00 | 0.00 | 29 | 1012.6 |
| 20260509132530 | 59 | 275 | 3.5 | 8.7 | 0.00 | 0.00 | 0.00 | 29 | 1012.5 |
| 20260509132028 | 58 | 254 | 4.3 | 7.0 | 0.00 | 0.00 | 0.00 | 30 | 1012.4 |
| 20260509131548 | 58 | 266 | 2.6 | 7.8 | 0.00 | 0.00 | 0.00 | 30 | 1012.3 |
| 20260509131029 | 58 | 276 | 4.3 | 7.8 | 0.00 | 0.00 | 0.00 | 31 | 1012.3 |
| 20260509130531 | 58 | 258 | 3.5 | 7.0 | 0.00 | 0.00 | 0.00 | 31 | 1012.3 |
| 20260509130041 | 58 | 265 | 3.5 | 7.0 | 0.00 | 0.00 | 0.00 | 32 | 1012.2 |
| 20260509125528 | 58 | 281 | 3.5 | 7.8 | 0.00 | 0.00 | 0.00 | 32 | 1012.2 |
| 20260509125025 | 58 | 274 | 4.3 | 6.1 | 0.00 | 0.00 | 0.00 | 33 | 1012.2 |
| 20260509124530 | 58 | 265 | 2.6 | 6.1 | 0.00 | 0.00 | 0.00 | 33 | 1012.2 |
| 20260509124024 | 58 | 284 | 2.6 | 3.5 | 0.00 | 0.00 | 0.00 | 33 | 1012.2 |
| 20260509123523 | 58 | 267 | 1.7 | 3.5 | 0.00 | 0.00 | 0.00 | 33 | 1012.1 |
| 20260509123028 | 59 | 271 | 0.9 | 3.5 | 0.00 | 0.00 | 0.00 | 33 | 1012.0 |
| 20260509122522 | 58 | 256 | 1.7 | 3.5 | 0.00 | 0.00 | 0.00 | 32 | 1011.9 |
| 20260509122021 | 59 | 278 | 1.7 | 3.5 | 0.00 | 0.00 | 0.00 | 32 | 1011.9 |
| 20260509121523 | 58 | 288 | 1.7 | 3.5 | 0.00 | 0.00 | 0.00 | 33 | 1011.8 |
| 20260509121020 | 58 | 271 | 0.9 | 3.5 | 0.00 | 0.00 | 0.00 | 32 | 1011.7 |
| 20260509120523 | 58 | 264 | 1.7 | 3.5 | 0.00 | 0.00 | 0.00 | 32 | 1011.7 |
| 20260509120020 | 59 | 263 | 1.7 | 5.2 | 0.00 | 0.00 | 0.00 | 32 | 1011.6 |
| 20260509115518 | 59 | 267 | 2.6 | 6.1 | 0.00 | 0.00 | 0.00 | 31 | 1011.6 |
| 20260509115021 | 59 | 272 | 3.5 | 6.1 | 0.00 | 0.00 | 0.00 | 32 | 1011.7 |
| 20260509114518 | 59 | 265 | 2.6 | 5.2 | 0.00 | 0.00 | 0.00 | 32 | 1011.6 |
| 20260509114018 | 60 | 252 | 2.6 | 6.1 | 0.00 | 0.00 | 0.00 | 31 | 1011.6 |
| 20260509113519 | 60 | 262 | 3.5 | 6.1 | 0.00 | 0.00 | 0.00 | 30 | 1011.5 |
| 20260509113017 | 60 | 279 | 2.6 | 4.3 | 0.00 | 0.00 | 0.00 | 31 | 1011.6 |
| 20260509112517 | 60 | 271 | 2.6 | 7.0 | 0.00 | 0.00 | 0.00 | 31 | 1011.5 |
| 20260509112016 | 61 | 254 | 4.3 | 7.8 | 0.00 | 0.00 | 0.00 | 30 | 1011.4 |
| 20260509111516 | 61 | 275 | 5.2 | 7.8 | 0.00 | 0.00 | 0.00 | 30 | 1011.5 |
| 20260509111016 | 61 | 278 | 5.2 | 7.8 | 0.00 | 0.00 | 0.00 | 31 | 1011.4 |
| 20260509110516 | 60 | 256 | 6.1 | 8.7 | 0.00 | 0.00 | 0.00 | 31 | 1011.4 |
| 20260509110022 | 61 | 274 | 5.2 | 8.7 | 0.00 | 0.00 | 0.00 | 31 | 1011.5 |
| 20260509105515 | 61 | 275 | 6.1 | 8.7 | 0.00 | 0.00 | 0.00 | 31 | 1011.5 |
| 20260509105017 | 61 | 274 | 5.2 | 9.6 | 0.00 | 0.00 | 0.00 | 31 | 1011.5 |
| 20260509104515 | 61 | 284 | 5.2 | 9.6 | 0.00 | 0.00 | 0.00 | 31 | 1011.5 |
| 20260509104013 | 61 | 263 | 5.2 | 7.8 | 0.00 | 0.00 | 0.00 | 31 | 1011.4 |
| 20260509103512 | 61 | 282 | 4.3 | 7.8 | 0.00 | 0.00 | 0.00 | 30 | 1011.4 |
| 20260509103013 | 61 | 254 | 5.2 | 7.8 | 0.00 | 0.00 | 0.00 | 30 | 1011.4 |
| 20260509102512 | 60 | 273 | 4.3 | 7.8 | 0.00 | 0.00 | 0.00 | 31 | 1011.4 |
| 20260509102012 | 60 | 271 | 3.5 | 7.8 | 0.00 | 0.00 | 0.00 | 31 | 1011.4 |
| 20260509101519 | 58 | 259 | 3.5 | 6.1 | 0.00 | 0.00 | 0.00 | 33 | 1011.4 |
| 20260509101012 | 57 | 251 | 0.9 | 3.5 | 0.00 | 0.00 | 0.00 | 33 | 1011.3 |
| 20260509100510 | 57 | 225 | 1.7 | 3.5 | 0.00 | 0.00 | 0.00 | 33 | 1011.2 |
| 20260509100010 | 57 | 221 | 0.9 | 2.6 | 0.00 | 0.00 | 0.00 | 34 | 1011.2 |
| 20260509095509 | 58 | 224 | 0.9 | 2.6 | 0.00 | 0.00 | 0.00 | 33 | 1011.1 |
| 20260509095007 | 58 | 267 | 0.0 | 0.9 | 0.00 | 0.00 | 0.00 | 32 | 1011.1 |
| 20260509094505 | 59 | 267 | 0.0 | 0.9 | 0.00 | 0.00 | 0.00 | 31 | 1011.0 |
| 20260509094006 | 60 | 267 | 0.0 | 0.9 | 0.00 | 0.00 | 0.00 | 31 | 1011.0 |
| 20260509093503 | 60 | 267 | 0.0 | 0.0 | 0.00 | 0.00 | 0.00 | 30 | 1011.0 |
| 20260509093003 | 61 | 267 | 0.0 | 4.3 | 0.00 | 0.00 | 0.00 | 30 | 1010.9 |
| 20260509092500 | 61 | 267 | 0.0 | 4.3 | 0.00 | 0.00 | 0.00 | 29 | 1010.8 |
| 20260509092001 | 62 | 259 | 0.9 | 3.5 | 0.00 | 0.00 | 0.00 | 29 | 1010.8 |
| 20260509091601 | 62 | 260 | 1.7 | 5.2 | 0.00 | 0.00 | 0.00 | 29 | 1010.7 |
| 20260509091104 | 61 | 264 | 1.7 | 5.2 | 0.00 | 0.00 | 0.00 | 29 | 1010.8 |
| 20260509090600 | 62 | 257 | 1.7 | 6.1 | 0.00 | 0.00 | 0.00 | 29 | 1010.7 |
| 20260509090106 | 62 | 258 | 2.6 | 6.1 | 0.00 | 0.00 | 0.00 | 28 | 1010.7 |
| 20260509085603 | 62 | 255 | 1.7 | 7.8 | 0.00 | 0.00 | 0.00 | 28 | 1010.7 |
| 20260509085100 | 63 | 261 | 2.6 | 7.8 | 0.00 | 0.00 | 0.00 | 27 | 1010.7 |
| 20260509084611 | 63 | 279 | 2.6 | 7.0 | 0.00 | 0.00 | 0.00 | 28 | 1010.7 |
| 20260509084058 | 63 | 269 | 3.5 | 7.0 | 0.00 | 0.00 | 0.00 | 28 | 1010.7 |
| 20260509083600 | 63 | 266 | 3.5 | 6.1 | 0.00 | 0.00 | 0.00 | 27 | 1010.7 |
| 20260509083059 | 63 | 268 | 4.3 | 6.1 | 0.00 | 0.00 | 0.00 | 26 | 1010.7 |
| 20260509082557 | 64 | 252 | 2.6 | 5.2 | 0.00 | 0.00 | 0.00 | 25 | 1010.7 |
| 20260509082057 | 65 | 252 | 2.6 | 7.8 | 0.00 | 0.00 | 0.00 | 23 | 1010.8 |
| 20260509081557 | 65 | 278 | 3.5 | 7.8 | 0.00 | 0.00 | 0.00 | 23 | 1010.7 |
| 20260509081059 | 65 | 285 | 2.6 | 6.1 | 0.00 | 0.00 | 0.00 | 23 | 1010.7 |
| 20260509080557 | 65 | 259 | 1.7 | 6.1 | 0.00 | 0.00 | 0.00 | 22 | 1010.8 |
| 20260509080058 | 65 | 279 | 2.6 | 6.1 | 0.00 | 0.00 | 0.00 | 22 | 1010.7 |
| 20260509075556 | 65 | 275 | 3.5 | 7.8 | 0.00 | 0.00 | 0.00 | 21 | 1010.7 |
| 20260509075055 | 65 | 274 | 6.1 | 7.8 | 0.00 | 0.00 | 0.00 | 22 | 1010.7 |
| 20260509074601 | 63 | 273 | 4.3 | 7.0 | 0.00 | 0.00 | 0.00 | 23 | 1010.6 |
| 20260509074053 | 62 | 256 | 4.3 | 6.1 | 0.00 | 0.00 | 0.00 | 25 | 1010.6 |
| 20260509073552 | 62 | 253 | 2.6 | 5.2 | 0.00 | 0.00 | 0.00 | 27 | 1010.6 |
| 20260509073052 | 63 | 234 | 1.7 | 3.5 | 0.00 | 0.00 | 0.00 | 28 | 1010.7 |
| 20260509072550 | 64 | 257 | 0.9 | 6.1 | 0.00 | 0.00 | 0.00 | 28 | 1010.7 |
| 20260509072048 | 65 | 257 | 1.7 | 6.1 | 0.00 | 0.00 | 0.00 | 27 | 1010.7 |
| 20260509071549 | 65 | 261 | 1.7 | 4.3 | 0.00 | 0.00 | 0.00 | 28 | 1010.7 |
| 20260509071048 | 65 | 259 | 1.7 | 5.2 | 0.00 | 0.00 | 0.00 | 27 | 1010.7 |
| 20260509070546 | 66 | 250 | 2.6 | 5.2 | 0.00 | 0.00 | 0.00 | 27 | 1010.6 |
| 20260509070046 | 66 | 248 | 2.6 | 7.8 | 0.00 | 0.00 | 0.00 | 27 | 1010.5 |
| 20260509065544 | 67 | 246 | 3.5 | 9.6 | 0.00 | 0.00 | 0.00 | 26 | 1010.5 |
| 20260509065043 | 67 | 286 | 4.3 | 9.6 | 0.00 | 0.00 | 0.00 | 25 | 1010.4 |
| 20260509064543 | 68 | 283 | 3.5 | 8.7 | 0.00 | 0.00 | 0.00 | 24 | 1010.3 |
| 20260509064043 | 67 | 277 | 3.5 | 8.7 | 0.00 | 0.00 | 0.00 | 23 | 1010.3 |
| 20260509063542 | 67 | 269 | 2.6 | 7.0 | 0.00 | 0.00 | 0.00 | 26 | 1010.2 |
| 20260509063042 | 68 | 262 | 3.5 | 7.8 | 0.00 | 0.00 | 0.00 | 27 | 1010.2 |
| 20260509062543 | 68 | 269 | 4.3 | 7.8 | 0.00 | 0.00 | 0.00 | 27 | 1010.2 |
| 20260509062043 | 69 | 265 | 5.2 | 8.7 | 0.00 | 0.00 | 0.00 | 27 | 1010.1 |
| 20260509061545 | 69 | 260 | 5.2 | 8.7 | 0.00 | 0.00 | 0.00 | 26 | 1010.1 |
| 20260509061041 | 69 | 252 | 4.3 | 7.8 | 0.00 | 0.00 | 0.00 | 27 | 1010.0 |
| 20260509060542 | 70 | 250 | 5.2 | 7.8 | 0.00 | 0.00 | 0.00 | 26 | 1010.1 |
| 20260509060042 | 70 | 252 | 3.5 | 7.0 | 0.00 | 0.00 | 0.00 | 26 | 1010.1 |
| 20260509055540 | 69 | 237 | 3.5 | 7.8 | 0.00 | 0.00 | 0.00 | 25 | 1010.1 |
| 20260509055040 | 69 | 245 | 3.5 | 7.8 | 0.00 | 0.00 | 0.00 | 26 | 1010.1 |
| 20260509054556 | 68 | 228 | 1.7 | 4.3 | 0.00 | 0.00 | 0.00 | 25 | 1010.2 |
| 20260509054040 | 68 | 246 | 2.6 | 5.2 | 0.00 | 0.00 | 0.00 | 26 | 1010.2 |
| 20260509053540 | 69 | 266 | 1.7 | 7.0 | 0.00 | 0.00 | 0.00 | 25 | 1010.2 |
| 20260509053134 | 70 | 270 | 4.3 | 9.6 | 0.00 | 0.00 | 0.00 | 24 | 1010.2 |
| 20260509052543 | 70 | 278 | 4.3 | 9.6 | 0.00 | 0.00 | 0.00 | 24 | 1010.2 |
| 20260509052039 | 70 | 268 | 3.5 | 8.7 | 0.00 | 0.00 | 0.00 | 24 | 1010.1 |
| 20260509051546 | 71 | 304 | 6.1 | 8.7 | 0.00 | 0.00 | 0.00 | 24 | 1010.2 |
| 20260509051039 | 70 | 286 | 5.2 | 7.8 | 0.00 | 0.00 | 0.00 | 23 | 1010.0 |
| 20260509050539 | 70 | 286 | 3.5 | 7.0 | 0.00 | 0.00 | 0.00 | 23 | 1009.9 |
| 20260509050045 | 70 | 266 | 3.5 | 6.1 | 0.00 | 0.00 | 0.00 | 23 | 1009.9 |
| 20260509045538 | 70 | 286 | 1.7 | 5.2 | 0.00 | 0.00 | 0.00 | 23 | 1009.8 |
| 20260509045037 | 70 | 288 | 2.6 | 6.1 | 0.00 | 0.00 | 0.00 | 23 | 1009.8 |
| 20260509044537 | 71 | 295 | 1.7 | 5.2 | 0.00 | 0.00 | 0.00 | 22 | 1009.8 |
| 20260509044037 | 72 | 288 | 1.7 | 7.0 | 0.00 | 0.00 | 0.00 | 21 | 1009.7 |
| 20260509043538 | 71 | 263 | 2.6 | 7.0 | 0.00 | 0.00 | 0.00 | 21 | 1009.6 |
| 20260509043037 | 71 | 279 | 2.6 | 5.2 | 0.00 | 0.00 | 0.00 | 21 | 1009.4 |
| 20260509042536 | 71 | 210 | 2.6 | 5.2 | 0.00 | 0.00 | 0.00 | 20 | 1009.4 |
| 20260509042036 | 71 | 237 | 1.7 | 4.3 | 0.00 | 0.00 | 0.00 | 20 | 1009.4 |
| 20260509041536 | 72 | 232 | 1.7 | 3.5 | 0.00 | 0.00 | 0.00 | 19 | 1009.3 |
| 20260509041035 | 72 | 219 | 1.7 | 4.3 | 0.00 | 0.00 | 0.00 | 19 | 1009.3 |
| 20260509040536 | 72 | 219 | 2.6 | 6.1 | 0.00 | 0.00 | 0.00 | 19 | 1009.2 |
| 20260509040036 | 73 | 231 | 1.7 | 8.7 | 0.00 | 0.00 | 0.00 | 18 | 1009.2 |
| 20260509035536 | 74 | 200 | 1.7 | 11.3 | 0.00 | 0.00 | 0.00 | 17 | 1009.1 |
| 20260509035036 | 74 | 275 | 7.8 | 11.3 | 0.00 | 0.00 | 0.00 | 18 | 1009.0 |
| 20260509034535 | 73 | 256 | 5.2 | 9.6 | 0.00 | 0.00 | 0.00 | 18 | 1009.1 |
| 20260509034035 | 73 | 218 | 6.1 | 9.6 | 0.00 | 0.00 | 0.00 | 17 | 1009.0 |
| 20260509033536 | 73 | 246 | 2.6 | 6.1 | 0.00 | 0.00 | 0.00 | 16 | 1009.0 |
| 20260509033035 | 73 | 274 | 2.6 | 7.0 | 0.00 | 0.00 | 0.00 | 16 | 1008.9 |
| 20260509032535 | 73 | 291 | 4.3 | 7.0 | 0.00 | 0.00 | 0.00 | 16 | 1008.8 |
| 20260509032034 | 73 | 281 | 3.5 | 9.6 | 0.00 | 0.00 | 0.00 | 16 | 1008.8 |
| 20260509031534 | 73 | 269 | 2.6 | 9.6 | 0.00 | 0.00 | 0.00 | 16 | 1008.8 |
| 20260509031034 | 73 | 261 | 2.6 | 7.8 | 0.00 | 0.00 | 0.00 | 16 | 1008.7 |
| 20260509030534 | 74 | 277 | 2.6 | 7.8 | 0.00 | 0.00 | 0.00 | 15 | 1008.6 |
| 20260509030038 | 74 | 304 | 3.5 | 7.8 | 0.00 | 0.00 | 0.00 | 15 | 1008.5 |
| 20260509025536 | 75 | 288 | 3.5 | 8.7 | 0.00 | 0.00 | 0.00 | 15 | 1008.5 |
| 20260509025033 | 75 | 299 | 3.5 | 8.7 | 0.00 | 0.00 | 0.00 | 15 | 1008.5 |
| 20260509024536 | 76 | 294 | 3.5 | 11.3 | 0.00 | 0.00 | 0.00 | 15 | 1008.4 |
| 20260509024033 | 76 | 339 | 4.3 | 11.3 | 0.00 | 0.00 | 0.00 | 15 | 1008.3 |
| 20260509023534 | 76 | 326 | 5.2 | 10.4 | 0.00 | 0.00 | 0.00 | 15 | 1008.3 |
| 20260509023043 | 76 | 324 | 4.3 | 9.6 | 0.00 | 0.00 | 0.00 | 15 | 1008.3 |
| 20260509022536 | 77 | 333 | 4.3 | 12.2 | 0.00 | 0.00 | 0.00 | 15 | 1008.2 |
| 20260509022034 | 77 | 294 | 6.1 | 12.2 | 0.00 | 0.00 | 0.00 | 15 | 1008.1 |
| 20260509021532 | 78 | 296 | 5.2 | 10.4 | 0.00 | 0.00 | 0.00 | 15 | 1008.1 |
| 20260509021033 | 78 | 313 | 4.3 | 10.4 | 0.00 | 0.00 | 0.00 | 15 | 1008.1 |
| 20260509020531 | 79 | 326 | 5.2 | 10.4 | 0.00 | 0.00 | 0.00 | 15 | 1008.1 |
| 20260509020033 | 79 | 313 | 5.2 | 13.0 | 0.00 | 0.00 | 0.00 | 15 | 1008.0 |
| 20260509015532 | 79 | 310 | 6.1 | 13.0 | 0.00 | 0.00 | 0.00 | 15 | 1008.0 |
| 20260509015031 | 79 | 290 | 6.1 | 12.2 | 0.00 | 0.00 | 0.00 | 15 | 1007.9 |
| 20260509014537 | 80 | 321 | 5.2 | 11.3 | 0.00 | 0.00 | 0.00 | 15 | 1007.9 |
| 20260509014032 | 80 | 5 | 5.2 | 10.4 | 0.00 | 0.00 | 0.00 | 15 | 1008.0 |
| 20260509013532 | 80 | 334 | 6.1 | 13.0 | 0.00 | 0.00 | 0.00 | 15 | 1007.9 |
| 20260509013031 | 80 | 280 | 7.0 | 13.0 | 0.00 | 0.00 | 0.00 | 15 | 1007.8 |
| 20260509012530 | 81 | 360 | 5.2 | 12.2 | 0.00 | 0.00 | 0.00 | 15 | 1007.9 |
| 20260509012030 | 81 | 360 | 7.0 | 11.3 | 0.00 | 0.00 | 0.00 | 15 | 1007.9 |
| 20260509011533 | 81 | 320 | 6.1 | 13.9 | 0.00 | 0.00 | 0.00 | 15 | 1007.8 |
| 20260509011029 | 81 | 325 | 7.0 | 15.6 | 0.00 | 0.00 | 0.00 | 14 | 1007.9 |
| 20260509010528 | 82 | 299 | 6.1 | 15.6 | 0.00 | 0.00 | 0.00 | 14 | 1008.0 |
| 20260509010029 | 82 | 329 | 3.5 | 12.2 | 0.00 | 0.00 | 0.00 | 13 | 1007.9 |
| 20260509005527 | 83 | 348 | 7.0 | 12.2 | 0.00 | 0.00 | 0.00 | 13 | 1008.0 |
| 20260509005027 | 83 | 344 | 4.3 | 10.4 | 0.00 | 0.00 | 0.00 | 13 | 1007.9 |
| 20260509004531 | 83 | 12 | 4.3 | 13.0 | 0.00 | 0.00 | 0.00 | 12 | 1008.0 |
| 20260509004027 | 83 | 5 | 7.0 | 13.0 | 0.00 | 0.00 | 0.00 | 12 | 1007.9 |
| 20260509003526 | 84 | 360 | 6.1 | 10.4 | 0.00 | 0.00 | 0.00 | 12 | 1008.1 |
| 20260509003042 | 84 | 11 | 4.3 | 10.4 | 0.00 | 0.00 | 0.00 | 12 | 1008.1 |
| 20260509002526 | 83 | 26 | 4.3 | 11.3 | 0.00 | 0.00 | 0.00 | 12 | 1008.1 |
| 20260509002026 | 83 | 342 | 4.3 | 13.9 | 0.00 | 0.00 | 0.00 | 12 | 1008.1 |
| 20260509001526 | 82 | 5 | 5.2 | 16.5 | 0.00 | 0.00 | 0.00 | 12 | 1008.2 |
| 20260509001026 | 83 | 304 | 6.1 | 10.4 | 0.00 | 0.00 | 0.00 | 11 | 1008.1 |
| 20260509000529 | 82 | 346 | 6.1 | 14.8 | 0.00 | 0.00 | 0.00 | 12 | 1008.2 |
| 20260509000024 | 84 | 288 | 8.7 | 14.8 | 0.00 | 0.00 | 0.00 | 11 | 1008.3 |
| 20260508235524 | 84 | 314 | 4.3 | 11.3 | 0.00 | 0.00 | 0.00 | 11 | 1008.3 |
| 20260508235024 | 83 | 23 | 7.8 | 14.8 | 0.00 | 0.00 | 0.00 | 11 | 1008.3 |
| 20260508234527 | 83 | 355 | 8.7 | 13.9 | 0.00 | 0.00 | 0.00 | 11 | 1008.2 |
| 20260508234022 | 83 | 263 | 5.2 | 15.6 | 0.00 | 0.00 | 0.00 | 11 | 1008.3 |
| 20260508233522 | 83 | 259 | 7.0 | 15.6 | 0.00 | 0.00 | 0.00 | 11 | 1008.4 |
| 20260508233023 | 83 | 257 | 3.5 | 13.9 | 0.00 | 0.00 | 0.00 | 10 | 1008.4 |
| 20260508232521 | 83 | 271 | 8.7 | 12.2 | 0.00 | 0.00 | 0.00 | 10 | 1008.5 |
| 20260508232021 | 84 | 290 | 4.3 | 13.9 | 0.00 | 0.00 | 0.00 | 9 | 1008.4 |
| 20260508231521 | 83 | 273 | 7.0 | 14.8 | 0.00 | 0.00 | 0.00 | 9 | 1008.6 |
| 20260508231022 | 82 | 278 | 7.8 | 17.4 | 0.00 | 0.00 | 0.00 | 8 | 1008.5 |
| 20260508230520 | 84 | 287 | 8.7 | 17.4 | 0.00 | 0.00 | 0.00 | 8 | 1008.5 |
| 20260508230020 | 86 | 294 | 1.7 | 11.3 | 0.00 | 0.00 | 0.00 | 9 | 1008.6 |
| 20260508225524 | 86 | 47 | 5.2 | 11.3 | 0.00 | 0.00 | 0.00 | 10 | 1008.8 |
| 20260508225017 | 86 | 355 | 1.7 | 9.6 | 0.00 | 0.00 | 0.00 | 9 | 1008.8 |
| 20260508224516 | 85 | 338 | 0.9 | 9.6 | 0.00 | 0.00 | 0.00 | 10 | 1008.9 |
| 20260508224016 | 84 | 344 | 4.3 | 11.3 | 0.00 | 0.00 | 0.00 | 10 | 1009.1 |
| 20260508223519 | 84 | 355 | 7.0 | 13.0 | 0.00 | 0.00 | 0.00 | 9 | 1009.2 |
| 20260508223018 | 84 | 307 | 7.0 | 13.0 | 0.00 | 0.00 | 0.00 | 10 | 1009.1 |
| 20260508222514 | 85 | 317 | 4.3 | 13.9 | 0.00 | 0.00 | 0.00 | 10 | 1009.1 |
| 20260508222015 | 85 | 313 | 8.7 | 13.9 | 0.00 | 0.00 | 0.00 | 10 | 1009.1 |
| 20260508221520 | 85 | 346 | 4.3 | 11.3 | 0.00 | 0.00 | 0.00 | 11 | 1009.2 |
| 20260508221013 | 85 | 330 | 2.6 | 11.3 | 0.00 | 0.00 | 0.00 | 11 | 1009.2 |
| 20260508220516 | 85 | 355 | 5.2 | 12.2 | 0.00 | 0.00 | 0.00 | 11 | 1009.4 |
| 20260508220016 | 84 | 290 | 4.3 | 13.0 | 0.00 | 0.00 | 0.00 | 11 | 1009.4 |
| 20260508215512 | 84 | 342 | 1.7 | 13.0 | 0.00 | 0.00 | 0.00 | 12 | 1009.4 |
| 20260508215011 | 85 | 331 | 6.1 | 12.2 | 0.00 | 0.00 | 0.00 | 14 | 1009.5 |
| 20260508214511 | 85 | 325 | 5.2 | 12.2 | 0.00 | 0.00 | 0.00 | 11 | 1009.6 |
| 20260508214010 | 84 | 283 | 7.8 | 13.0 | 0.00 | 0.00 | 0.00 | 11 | 1009.6 |
| 20260508213510 | 85 | 5 | 7.0 | 13.0 | 0.00 | 0.00 | 0.00 | 11 | 1009.6 |
| 20260508213010 | 86 | 64 | 4.3 | 10.4 | 0.00 | 0.00 | 0.00 | 11 | 1009.7 |
| 20260508212514 | 86 | 319 | 5.2 | 11.3 | 0.00 | 0.00 | 0.00 | 10 | 1009.7 |
| 20260508212010 | 87 | 348 | 5.2 | 10.4 | 0.00 | 0.00 | 0.00 | 10 | 1009.6 |
| 20260508211507 | 85 | 11 | 2.6 | 9.6 | 0.00 | 0.00 | 0.00 | 10 | 1009.7 |
| 20260508211007 | 83 | 327 | 2.6 | 9.6 | 0.00 | 0.00 | 0.00 | 11 | 1009.7 |
| 20260508210506 | 82 | 254 | 2.6 | 12.2 | 0.00 | 0.00 | 0.00 | 10 | 1009.8 |
| 20260508210006 | 82 | 247 | 6.1 | 13.9 | 0.00 | 0.00 | 0.00 | 8 | 1009.9 |
| 20260508205505 | 83 | 178 | 4.3 | 13.9 | 0.00 | 0.00 | 0.00 | 8 | 1009.9 |
| 20260508205004 | 84 | 283 | 0.9 | 4.3 | 0.00 | 0.00 | 0.00 | 7 | 1010.0 |
| 20260508204504 | 81 | 5 | 1.7 | 12.2 | 0.00 | 0.00 | 0.00 | 8 | 1010.0 |
| 20260508204002 | 80 | 194 | 3.5 | 12.2 | 0.00 | 0.00 | 0.00 | 7 | 1010.1 |
| 20260508203503 | 80 | 254 | 2.6 | 7.8 | 0.00 | 0.00 | 0.00 | 8 | 1010.2 |
| 20260508203002 | 80 | 183 | 4.3 | 10.4 | 0.00 | 0.00 | 0.00 | 8 | 1010.3 |
| 20260508202502 | 80 | 237 | 1.7 | 10.4 | 0.00 | 0.00 | 0.00 | 9 | 1010.3 |
| 20260508202100 | 80 | 246 | 3.5 | 10.4 | 0.00 | 0.00 | 0.00 | 8 | 1010.3 |
| 20260508202001 | 81 | 214 | 5.2 | 10.4 | 0.00 | 0.00 | 0.00 | 8 | 1010.3 |
| 20260508201501 | 81 | 279 | 5.2 | 14.8 | 0.00 | 0.00 | 0.00 | 9 | 1010.4 |
| 20260508201100 | 82 | 227 | 7.0 | 14.8 | 0.00 | 0.00 | 0.00 | 8 | 1010.4 |
| 20260508200600 | 82 | 336 | 2.6 | 11.3 | 0.00 | 0.00 | 0.00 | 8 | 1010.3 |
| 20260508200108 | 82 | 223 | 4.3 | 11.3 | 0.00 | 0.00 | 0.00 | 9 | 1010.5 |
| 20260508195600 | 81 | 335 | 3.5 | 6.1 | 0.00 | 0.00 | 0.00 | 12 | 1010.4 |
| 20260508195059 | 79 | 25 | 0.9 | 10.4 | 0.00 | 0.00 | 0.00 | 16 | 1010.5 |
| 20260508194600 | 80 | 355 | 0.9 | 7.0 | 0.00 | 0.00 | 0.00 | 16 | 1010.5 |
| 20260508194102 | 80 | 5 | 2.6 | 5.2 | 0.00 | 0.00 | 0.00 | 15 | 1010.6 |
| 20260508193557 | 79 | 328 | 1.7 | 8.7 | 0.00 | 0.00 | 0.00 | 16 | 1010.6 |
| 20260508193109 | 80 | 331 | 2.6 | 8.7 | 0.00 | 0.00 | 0.00 | 11 | 1010.7 |
| 20260508192559 | 79 | 350 | 2.6 | 10.4 | 0.00 | 0.00 | 0.00 | 17 | 1010.8 |
| 20260508192056 | 79 | 294 | 4.3 | 10.4 | 0.00 | 0.00 | 0.00 | 16 | 1010.8 |
| 20260508191557 | 80 | 281 | 1.7 | 7.8 | 0.00 | 0.00 | 0.00 | 15 | 1010.8 |
| 20260508191056 | 81 | 360 | 0.9 | 7.8 | 0.00 | 0.00 | 0.00 | 16 | 1010.9 |
| 20260508190556 | 81 | 333 | 2.6 | 9.6 | 0.00 | 0.00 | 0.00 | 16 | 1011.0 |
| 20260508190058 | 80 | 348 | 2.6 | 9.6 | 0.00 | 0.00 | 0.00 | 16 | 1011.1 |
| 20260508185555 | 78 | 355 | 3.5 | 7.8 | 0.00 | 0.00 | 0.00 | 18 | 1011.2 |
| 20260508185055 | 79 | 202 | 3.5 | 8.7 | 0.00 | 0.00 | 0.00 | 17 | 1011.3 |
| 20260508184603 | 81 | 329 | 4.3 | 8.7 | 0.00 | 0.00 | 0.00 | 16 | 1011.3 |
| 20260508184053 | 80 | 19 | 2.6 | 8.7 | 0.00 | 0.00 | 0.00 | 17 | 1011.5 |
| 20260508183552 | 78 | 350 | 3.5 | 8.7 | 0.00 | 0.00 | 0.00 | 18 | 1011.6 |
| 20260508183103 | 78 | 284 | 3.5 | 7.8 | 0.00 | 0.00 | 0.00 | 17 | 1011.5 |
| 20260508182551 | 78 | 346 | 2.6 | 8.7 | 0.00 | 0.00 | 0.00 | 17 | 1011.5 |
| 20260508182050 | 77 | 265 | 4.3 | 9.6 | 0.00 | 0.00 | 0.00 | 16 | 1011.6 |
| 20260508181550 | 77 | 284 | 3.5 | 9.6 | 0.00 | 0.00 | 0.00 | 17 | 1011.7 |
| 20260508181050 | 76 | 329 | 1.7 | 8.7 | 0.00 | 0.00 | 0.00 | 19 | 1011.7 |
| 20260508180550 | 77 | 235 | 3.5 | 7.8 | 0.00 | 0.00 | 0.00 | 17 | 1011.7 |
| 20260508180050 | 77 | 5 | 2.6 | 8.7 | 0.00 | 0.00 | 0.00 | 18 | 1011.8 |
| 20260508175549 | 77 | 315 | 2.6 | 8.7 | 0.00 | 0.00 | 0.00 | 17 | 1011.9 |
| 20260508175048 | 77 | 328 | 2.6 | 7.0 | 0.00 | 0.00 | 0.00 | 17 | 1011.9 |
| 20260508174559 | 76 | 88 | 0.9 | 4.3 | 0.00 | 0.00 | 0.00 | 17 | 1011.8 |
| 20260508174045 | 74 | 10 | 0.9 | 7.8 | 0.00 | 0.00 | 0.00 | 19 | 1011.9 |
| 20260508173544 | 73 | 269 | 3.5 | 7.8 | 0.00 | 0.00 | 0.00 | 19 | 1011.9 |
| 20260508173043 | 72 | 237 | 1.7 | 8.7 | 0.00 | 0.00 | 0.00 | 19 | 1011.9 |
| 20260508172545 | 72 | 203 | 1.7 | 8.7 | 0.00 | 0.00 | 0.00 | 19 | 1011.9 |
| 20260508172042 | 73 | 281 | 2.6 | 6.1 | 0.00 | 0.00 | 0.00 | 19 | 1012.0 |
| 20260508171542 | 72 | 267 | 1.7 | 7.8 | 0.00 | 0.00 | 0.00 | 19 | 1012.1 |
| 20260508171045 | 71 | 293 | 2.6 | 10.4 | 0.00 | 0.00 | 0.00 | 19 | 1012.1 |
| 20260508170540 | 71 | 318 | 3.5 | 7.0 | 0.00 | 0.00 | 0.00 | 20 | 1012.1 |
| 20260508170040 | 71 | 269 | 2.6 | 6.1 | 0.00 | 0.00 | 0.00 | 20 | 1012.2 |
| 20260508165539 | 70 | 199 | 1.7 | 7.8 | 0.00 | 0.00 | 0.00 | 21 | 1012.2 |
| 20260508165040 | 70 | 247 | 3.5 | 8.7 | 0.00 | 0.00 | 0.00 | 21 | 1012.2 |
| 20260508164545 | 70 | 285 | 2.6 | 7.8 | 0.00 | 0.00 | 0.00 | 21 | 1012.2 |
| 20260508164038 | 69 | 295 | 4.3 | 7.8 | 0.00 | 0.00 | 0.00 | 21 | 1012.2 |
| 20260508163539 | 69 | 254 | 3.5 | 8.7 | 0.00 | 0.00 | 0.00 | 21 | 1012.2 |
| 20260508163105 | 69 | 5 | 1.7 | 8.7 | 0.00 | 0.00 | 0.00 | 25 | 1012.3 |
| 20260508162538 | 69 | 273 | 4.3 | 7.8 | 0.00 | 0.00 | 0.00 | 24 | 1012.4 |
| 20260508162039 | 70 | 327 | 3.5 | 7.0 | 0.00 | 0.00 | 0.00 | 23 | 1012.3 |
| 20260508161539 | 70 | 311 | 2.6 | 7.0 | 0.00 | 0.00 | 0.00 | 23 | 1012.4 |
| 20260508161039 | 69 | 360 | 3.5 | 7.0 | 0.00 | 0.00 | 0.00 | 23 | 1012.4 |
| 20260508160536 | 69 | 279 | 2.6 | 7.0 | 0.00 | 0.00 | 0.00 | 24 | 1012.4 |
| 20260508160037 | 69 | 279 | 2.6 | 7.0 | 0.00 | 0.00 | 0.00 | 24 | 1012.5 |
| 20260508155534 | 68 | 327 | 3.5 | 7.8 | 0.00 | 0.00 | 0.00 | 24 | 1012.5 |
| 20260508155035 | 67 | 295 | 3.5 | 8.7 | 0.00 | 0.00 | 0.00 | 27 | 1012.7 |
| 20260508154532 | 66 | 348 | 2.6 | 8.7 | 0.00 | 0.00 | 0.00 | 25 | 1012.6 |
| 20260508154031 | 66 | 242 | 3.5 | 7.8 | 0.00 | 0.00 | 0.00 | 22 | 1012.7 |
| 20260508153532 | 66 | 270 | 4.3 | 7.0 | 0.00 | 0.00 | 0.00 | 23 | 1012.6 |
| 20260508153033 | 65 | 252 | 3.5 | 7.8 | 0.00 | 0.00 | 0.00 | 22 | 1012.6 |
| 20260508152530 | 65 | 236 | 4.3 | 7.8 | 0.00 | 0.00 | 0.00 | 21 | 1012.6 |
| 20260508152031 | 64 | 219 | 3.5 | 8.7 | 0.00 | 0.00 | 0.00 | 22 | 1012.6 |
| 20260508151536 | 64 | 256 | 4.3 | 9.6 | 0.00 | 0.00 | 0.00 | 22 | 1012.5 |
| 20260508151034 | 63 | 236 | 5.2 | 9.6 | 0.00 | 0.00 | 0.00 | 22 | 1012.4 |
| 20260508150530 | 63 | 244 | 5.2 | 11.3 | 0.00 | 0.00 | 0.00 | 23 | 1012.5 |
| 20260508150032 | 62 | 226 | 6.1 | 12.2 | 0.00 | 0.00 | 0.00 | 23 | 1012.5 |
| 20260508145530 | 62 | 242 | 7.0 | 12.2 | 0.00 | 0.00 | 0.00 | 24 | 1012.5 |
| 20260508145029 | 62 | 265 | 7.8 | 12.2 | 0.00 | 0.00 | 0.00 | 24 | 1012.6 |
| 20260508144535 | 61 | 236 | 7.0 | 13.0 | 0.00 | 0.00 | 0.00 | 24 | 1012.6 |
| 20260508144028 | 61 | 240 | 7.8 | 13.0 | 0.00 | 0.00 | 0.00 | 25 | 1012.6 |
| 20260508143528 | 61 | 261 | 7.0 | 12.2 | 0.00 | 0.00 | 0.00 | 25 | 1012.4 |
| 20260508143027 | 60 | 256 | 6.1 | 12.2 | 0.00 | 0.00 | 0.00 | 25 | 1012.5 |
| 20260508142527 | 60 | 231 | 4.3 | 9.6 | 0.00 | 0.00 | 0.00 | 26 | 1012.4 |
| 20260508142026 | 60 | 249 | 3.5 | 8.7 | 0.00 | 0.00 | 0.00 | 26 | 1012.3 |